This is the latest recevied weather packets stored in our database for station/object CT4TX-6. If no packets are shown the sender has not sent any weather packets the latest 10 day(s).
| Time | Temp. | Humidity | Pressure | Rain* | Wind** | Luminosity | Snow |
|---|---|---|---|---|---|---|---|
| 1787838461 | 26.11° C | 46% | 1001.6 hPa | - | - | - | - |
| 1787838424 | 26.11° C | 46% | 1001.5 hPa | - | - | - | - |
| 1787838341 | 26.11° C | 46% | 1001.6 hPa | - | - | - | - |
| 1787838308 | 26.11° C | 46% | 1001.6 hPa | - | - | - | - |
| 1787838226 | 26.11° C | 46% | 1001.4 hPa | - | - | - | - |
| 1787838200 | 26.11° C | 46% | 1001.6 hPa | - | - | - | - |
| 1787838143 | 26.11° C | 46% | 1001.6 hPa | - | - | - | - |
| 1787838081 | 26.11° C | 46% | 1001.5 hPa | - | - | - | - |
| 1787838042 | 26.11° C | 46% | 1001.5 hPa | - | - | - | - |
| 1787837598 | 26.67° C | 45% | 1001.5 hPa | - | - | - | - |
| 1787835798 | 27.22° C | 47% | 1001.2 hPa | - | - | - | - |
| 1787834898 | 26.67° C | 47% | 1001.1 hPa | - | - | - | - |
| 1787833997 | 26.67° C | 47% | 1000.7 hPa | - | - | - | - |
| 1787833097 | 26.67° C | 49% | 1000.4 hPa | - | - | - | - |
| 1787832172 | 26.11° C | 48% | 1000.1 hPa | - | - | - | - |
| 1787832145 | 26.11° C | 48% | 1000.2 hPa | - | - | - | - |
| 1787832083 | 26.11° C | 48% | 1000.1 hPa | - | - | - | - |
| 1787832053 | 26.11° C | 48% | 1000 hPa | - | - | - | - |
| 1787831978 | 26.11° C | 48% | 1000.1 hPa | - | - | - | - |
| 1787831932 | 26.11° C | 48% | 1000 hPa | - | - | - | - |
| 1787831905 | 26.11° C | 48% | 1000.1 hPa | - | - | - | - |
| 1787831866 | 25.56° C | 48% | 1000 hPa | - | - | - | - |
| 1787831825 | 26.11° C | 48% | 1000.1 hPa | - | - | - | - |
| 1787831807 | 25.56° C | 48% | 1000 hPa | - | - | - | - |
| 1787831742 | 26.11° C | 48% | 1000 hPa | - | - | - | - |
* Rain since midnight (hover to see other rain measurements)
** Current wind speed in m/s (hover to see current wind gust speed)